Precipitable_Water
1.33 1.38 1.33 1.31 1.30 1.26 1.19 1.14 1.14 1.15 1.16 1.17 1.18 1.17 1.17 1.12 1.18 1.25 1.29 1.34 1.44 1.49 1.48 1.53 1.48 1.45 1.43 1.45 1.41 1.51 1.67 1.74 1.69 1.61 1.52 1.43 1.34 1.25 1.18 1.04 0.94 0.89 0.83
1.42 1.41 1.44 1.41 1.38 1.34 1.25 1.17 1.12 1.12 1.13 1.18 1.16 1.16 1.16 1.22 1.20 1.22 1.30 1.34 1.36 1.44 1.47 1.47 1.44 1.44 1.40 1.39 1.38 1.46 1.63 1.58 1.79 1.63 1.52 1.44 1.35 1.29 1.23 1.07 0.97 0.87 0.82
1.62 1.55 1.50 1.46 1.47 1.45 1.34 1.26 1.21 1.24 1.19 1.19 1.12 1.17 1.21 1.24 1.27 1.25 1.26 1.29 1.32 1.33 1.36 1.37 1.37 1.39 1.39 1.40 1.37 1.49 1.58 1.66 1.71 1.67 1.52 1.42 1.35 1.22 1.23 1.15 1.00 0.87 0.80
1.75 1.74 1.70 1.67 1.64 1.54 1.42 1.36 1.26 1.20 1.21 1.18 1.13 1.17 1.23 1.27 1.26 1.26 1.24 1.25 1.25 1.26 1.30 1.30 1.31 1.33 1.33 1.33 1.37 1.46 1.61 1.70 1.65 1.71 1.53 1.43 1.35 1.25 1.17 1.16 1.04 0.90 0.80
1.70 1.69 1.72 1.73 1.73 1.60 1.56 1.42 1.34 1.29 1.18 1.16 1.13 1.20 1.27 1.29 1.27 1.28 1.21 1.18 1.22 1.24 1.23 1.21 1.26 1.30 1.31 1.28 1.27 1.41 1.57 1.54 1.64 1.71 1.55 1.44 1.35 1.28 1.19 1.14 1.06 0.97 0.85
1.30 1.54 1.60 1.60 1.66 1.67 1.63 1.65 1.48 1.40 1.28 1.18 1.15 1.17 1.29 1.32 1.36 1.29 1.25 1.23 1.21 1.22 1.20 1.16 1.20 1.18 1.21 1.24 1.23 1.34 1.50 1.49 1.54 1.68 1.62 1.49 1.40 1.36 1.22 1.14 1.08 1.03 0.93
1.06 1.11 1.27 1.47 1.50 1.46 1.48 1.53 1.51 1.50 1.49 1.42 1.27 1.24 1.28 1.33 1.34 1.28 1.25 1.20 1.20 1.20 1.15 1.09 1.11 1.14 1.13 1.19 1.24 1.31 1.43 1.53 1.53 1.64 1.63 1.54 1.47 1.45 1.31 1.19 1.09 1.06 0.98
0.86 0.93 0.94 0.97 1.17 1.32 1.36 1.42 1.46 1.43 1.41 1.51 1.40 1.32 1.11 1.22 1.27 1.25 1.23 1.21 1.18 1.17 1.09 1.07 1.09 1.07 1.10 1.14 1.20 1.26 1.35 1.42 1.49 1.53 1.57 1.56 1.52 1.52 1.41 1.17 1.03 0.99 0.94
0.62 0.66 0.76 0.83 0.84 1.03 1.12 1.22 1.25 1.26 1.25 1.36 1.46 1.38 1.21 1.08 1.19 1.28 1.19 1.16 1.11 1.13 1.12 1.09 1.10 1.07 1.09 1.07 1.12 1.20 1.27 1.28 1.32 1.42 1.55 1.61 1.56 1.54 1.45 1.20 1.03 0.96 0.89
0.64 0.62 0.60 0.63 0.69 0.74 0.85 0.98 1.14 1.13 1.12 1.09 1.25 1.26 1.31 1.30 1.06 1.00 1.19 1.19 1.15 1.11 1.08 1.10 1.06 1.06 1.08 1.09 1.10 1.15 1.27 1.36 1.36 1.42 1.53 1.63 1.59 1.54 1.45 1.28 1.02 0.97 0.86
0.67 0.69 0.69 0.67 0.67 0.72 0.78 0.92 0.95 1.02 1.07 1.07 1.07 1.14 1.19 1.21 1.18 1.03 0.92 1.00 1.11 1.12 1.07 1.08 1.06 1.05 1.05 1.09 1.10 1.18 1.27 1.36 1.42 1.44 1.49 1.62 1.62 1.55 1.45 1.34 1.12 0.97 0.87
0.68 0.73 0.74 0.74 0.74 0.75 0.82 0.93 1.01 0.98 1.02 1.02 1.02 1.06 1.04 1.01 0.97 0.94 0.91 0.96 0.94 0.96 1.04 1.10 1.08 1.04 1.05 1.05 1.16 1.21 1.25 1.36 1.41 1.48 1.50 1.64 1.63 1.53 1.46 1.37 1.21 1.04 0.90
0.70 0.73 0.76 0.76 0.75 0.79 0.79 0.91 1.05 1.06 1.01 1.04 1.09 1.04 1.07 1.08 1.06 0.98 0.96 1.02 0.93 0.96 0.98 1.12 1.12 1.07 1.08 1.09 1.17 1.23 1.33 1.37 1.48 1.52 1.53 1.62 1.62 1.52 1.46 1.36 1.18 1.05 0.86
0.68 0.73 0.75 0.79 0.81 0.82 0.81 0.87 1.03 1.11 1.09 1.15 1.17 1.24 1.16 1.16 1.18 1.13 1.00 1.04 0.95 0.93 0.96 0.94 1.13 1.08 1.08 1.06 1.15 1.23 1.31 1.43 1.50 1.52 1.58 1.63 1.58 1.53 1.40 1.26 1.16 1.03 0.89
0.69 0.72 0.75 0.77 0.84 0.85 0.84 0.85 0.99 1.06 1.12 1.10 1.00 1.08 1.14 1.21 1.21 1.20 1.23 1.17 1.02 0.83 0.82 0.96 1.00 1.09 1.09 1.08 1.17 1.25 1.29 1.44 1.48 1.49 1.45 1.45 1.47 1.51 1.40 1.28 1.15 0.99 0.91
0.67 0.70 0.74 0.79 0.83 0.86 0.91 0.86 0.90 0.98 1.01 1.09 1.17 1.19 1.14 1.19 1.17 1.22 1.25 1.25 1.14 0.98 0.82 0.95 1.00 1.06 1.12 1.11 1.17 1.27 1.29 1.35 1.42 1.47 1.46 1.44 1.47 1.52 1.50 1.41 1.28 1.08 0.92
0.61 0.67 0.71 0.78 0.86 0.91 1.07 1.00 0.98 0.96 1.08 1.18 1.18 1.16 1.12 1.17 1.20 1.18 1.20 1.19 1.11 1.11 0.96 1.02 1.09 1.15 1.12 1.10 1.12 1.24 1.33 1.34 1.37 1.41 1.44 1.47 1.49 1.51 1.51 1.45 1.37 1.23 1.14
0.61 0.64 0.71 0.78 0.84 0.92 1.04 1.13 1.10 1.05 1.12 1.19 1.16 1.09 1.08 1.16 1.15 1.17 1.17 1.11 1.11 1.18 1.12 1.01 1.12 1.11 1.09 1.16 1.15 1.19 1.28 1.36 1.40 1.43 1.44 1.47 1.48 1.49 1.49 1.45 1.39 1.33 1.30
0.60 0.63 0.68 0.74 0.81 0.90 0.96 1.06 1.22 1.21 1.14 1.18 1.14 1.06 1.09 1.10 1.07 1.11 1.10 1.10 1.15 1.22 1.25 1.10 1.11 1.19 1.16 1.16 1.10 1.23 1.28 1.28 1.39 1.40 1.43 1.44 1.46 1.45 1.48 1.42 1.41 1.38 1.33
0.59 0.61 0.67 0.73 0.79 0.89 0.95 0.98 1.09 1.19 1.21 1.25 1.22 1.21 1.21 1.16 1.09 1.08 1.12 1.11 1.10 1.18 1.25 1.14 1.08 1.12 1.10 1.09 1.11 1.08 1.06 1.16 1.17 1.28 1.33 1.34 1.38 1.40 1.44 1.42 1.38 1.32 1.31
0.58 0.62 0.67 0.73 0.79 0.87 0.90 0.97 1.08 1.10 1.07 1.10 1.32 1.31 1.29 1.27 1.17 1.25 1.14 1.11 1.16 1.19 1.20 1.13 1.10 1.10 1.01 0.99 0.96 1.05 1.02 1.04 1.04 1.10 1.14 1.19 1.23 1.26 1.30 1.35 1.36 1.32 1.30
0.58 0.63 0.66 0.71 0.78 0.85 0.92 0.98 1.04 1.08 1.09 1.13 1.19 1.22 1.32 1.23 1.17 1.18 1.19 1.22 1.27 1.22 1.15 1.14 1.07 1.00 0.92 0.99 1.01 0.94 0.93 0.91 0.85 1.03 1.02 1.01 1.13 1.12 1.18 1.29 1.29 1.28 1.27
0.58 0.61 0.64 0.68 0.76 0.82 0.89 0.94 0.98 1.01 1.04 1.04 1.09 1.07 1.14 1.14 1.10 1.14 1.16 1.22 1.28 1.27 1.27 1.16 1.02 0.98 0.95 1.00 1.00 0.95 0.90 0.91 0.89 0.98 0.96 0.93 1.00 1.02 1.11 1.17 1.24 1.25 1.24
0.57 0.59 0.61 0.66 0.73 0.77 0.83 0.86 0.91 0.94 0.95 0.95 0.94 1.02 1.01 1.01 1.06 1.08 1.13 1.19 1.11 1.16 1.17 1.12 1.05 1.01 1.00 1.03 1.00 1.01 0.96 0.94 0.96 0.95 1.01 0.84 0.97 0.93 1.02 1.07 1.15 1.18 1.17
0.56 0.57 0.60 0.65 0.68 0.71 0.76 0.80 0.83 0.84 0.85 0.87 0.88 0.92 0.95 0.98 1.02 1.03 1.03 1.08 1.09 1.10 1.07 0.99 0.97 0.98 0.95 0.95 1.00 0.96 0.90 0.88 0.86 0.92 0.99 0.92 0.90 0.92 0.96 0.97 1.03 1.09 1.08
0.47 0.52 0.57 0.62 0.64 0.66 0.71 0.74 0.77 0.78 0.78 0.80 0.83 0.86 0.89 0.93 0.96 0.97 0.98 0.99 1.00 0.99 0.98 0.91 0.84 0.84 0.87 0.90 0.95 0.97 0.96 0.91 0.92 0.90 1.00 0.94 0.92 0.92 0.84 0.92 0.96 1.00 1.01
Wind_Speed
32 32 31 30 30 29 28 28 27 26 25 24 23 23 22 22 22 21 21 22 21 21 20 19 18 19 19 20 20 20 21 29 31 27 26 25 23 21 19 17 15 14 13
35 34 34 34 33 31 30 30 29 29 28 27 26 25 25 25 24 23 22 22 23 22 22 21 20 20 21 21 21 21 24 27 35 30 29 27 25 23 21 18 16 15 14
36 37 37 37 36 34 33 32 31 31 29 29 29 28 27 26 25 24 24 23 23 23 23 23 22 22 22 22 22 22 24 31 38 34 31 29 27 25 23 20 18 16 15
37 37 37 38 37 35 35 34 33 33 33 32 31 30 29 28 28 27 26 25 24 24 24 24 23 23 23 22 22 23 23 28 37 36 33 31 29 27 24 23 20 18 17
34 37 37 37 37 39 36 36 36 36 35 34 34 33 32 31 30 29 28 27 26 25 25 25 25 24 24 24 23 22 22 23 34 38 35 33 31 29 26 25 22 20 18
34 35 37 38 38 38 38 39 39 38 38 38 37 37 36 35 33 32 30 29 28 27 27 26 26 24 25 25 25 23 24 22 25 36 36 34 33 30 28 26 24 22 21
35 35 37 38 39 40 41 41 41 40 41 41 39 39 39 38 36 34 32 30 29 28 28 27 26 26 26 26 26 26 26 25 27 31 40 38 35 32 30 28 26 25 23
37 38 38 38 40 41 42 42 42 42 41 41 42 41 41 40 38 35 34 33 31 30 29 28 27 27 25 26 27 28 28 28 30 31 32 39 37 34 32 29 27 25 25
36 38 40 40 40 41 43 44 45 45 44 42 41 39 44 38 34 35 35 34 33 31 30 29 29 28 27 26 27 29 30 33 34 35 38 41 40 36 34 31 29 26 26
36 37 40 41 42 42 43 44 45 46 44 44 43 42 29 26 28 30 33 36 35 34 33 31 30 29 29 28 28 29 32 34 35 35 40 41 42 38 35 32 30 27 27
34 36 39 41 44 45 46 46 47 47 47 46 45 44 45 44 42 35 32 34 36 35 34 33 31 31 30 29 29 28 30 33 35 37 40 48 44 41 37 34 31 29 28
33 36 38 40 42 45 47 46 47 49 49 50 50 51 49 47 45 39 34 35 33 33 34 33 32 31 30 30 30 29 30 31 37 41 43 50 47 42 38 35 32 30 29
33 34 36 38 40 42 45 46 49 50 50 51 51 52 50 48 45 44 38 35 32 31 32 34 33 32 31 30 29 29 28 30 31 38 38 48 46 42 39 36 33 31 30
33 34 35 37 39 41 43 45 46 48 48 48 47 45 48 46 46 45 43 39 35 33 33 31 33 32 32 30 29 27 26 25 30 32 34 40 42 40 38 36 34 33 31
32 34 34 36 38 39 40 42 41 42 43 44 45 44 42 42 42 43 44 42 36 33 35 33 31 32 31 29 28 27 24 23 28 35 36 42 41 40 38 36 34 34 33
31 32 33 35 35 36 38 38 39 39 40 40 39 38 38 38 39 39 41 40 37 34 33 32 33 29 30 28 28 28 25 23 25 28 33 34 40 39 38 38 36 34 34
30 31 32 33 33 34 33 35 36 35 34 33 32 35 38 38 37 38 41 42 39 36 33 32 32 30 29 28 28 29 28 28 25 26 26 32 34 37 37 38 38 36 36
29 30 31 32 32 31 30 30 32 33 34 33 33 34 36 37 37 35 41 40 37 36 32 30 30 29 29 28 28 29 30 31 31 30 31 32 34 36 37 37 39 38 38
28 29 30 30 31 29 28 27 28 31 32 33 34 34 34 35 35 34 34 34 34 35 33 29 30 29 29 29 28 28 29 30 30 31 33 34 36 37 39 40 40 40 41
25 27 28 28 28 28 28 27 28 30 32 32 32 33 33 35 36 36 34 36 38 37 34 32 30 30 29 29 29 28 27 28 30 30 31 32 34 36 38 39 40 41 41
23 24 25 27 24 23 24 25 27 30 32 36 30 29 31 33 29 35 33 32 35 36 36 32 30 30 29 28 30 29 29 29 30 31 32 32 33 35 36 39 40 39 40
22 22 23 23 20 19 20 20 21 17 20 21 27 26 22 24 24 27 29 27 30 33 35 34 31 31 29 28 29 29 29 30 31 32 32 32 34 35 37 38 40 40 40
19 20 20 19 16 16 15 13 14 16 15 19 20 24 23 24 25 25 25 25 22 25 28 29 29 30 30 30 30 30 31 31 32 32 34 33 34 34 37 38 39 40 39
17 18 19 16 14 12 11 12 11 11 12 14 19 19 22 23 23 24 24 25 27 26 27 27 28 28 28 29 31 31 31 29 30 31 34 34 35 34 34 34 36 37 38
16 17 18 15 14 12 10 8 7 8 10 12 18 16 19 21 20 22 23 24 26 26 26 25 26 27 28 29 30 30 30 30 30 32 34 34 34 33 34 33 34 34 35
14 14 15 15 16 14 13 11 7 5 5 8 10 12 17 16 18 18 22 23 24 26 26 27 27 27 27 28 28 31 31 31 30 30 32 32 33 32 31 33 34 33 34
Wind_Direction
248 249 250 250 250 251 251 253 254 254 255 255 255 254 254 254 253 255 254 254 252 253 256 256 260 259 261 259 260 249 242 223 217 212 212 211 210 209 210 211 213 216 218
249 250 250 250 250 249 251 253 254 255 255 255 256 256 255 254 252 253 254 253 254 256 255 256 260 261 262 259 257 253 243 230 217 214 212 211 211 211 212 214 216 218 220
251 251 250 250 249 248 251 252 253 255 256 256 255 256 254 253 251 251 252 253 254 256 254 258 260 262 263 260 257 254 248 229 223 214 212 212 212 213 215 217 218 221 222
252 253 251 253 248 248 250 251 252 253 255 255 255 254 254 253 251 250 251 252 253 254 256 257 261 261 260 259 258 257 249 234 224 215 213 213 213 215 217 219 221 223 224
255 254 255 257 261 246 252 252 252 253 253 255 255 253 253 252 251 250 251 251 251 253 255 258 259 261 258 258 256 255 247 249 215 214 214 215 215 216 219 221 223 224 226
259 258 257 256 257 256 256 254 252 252 253 253 253 253 252 251 251 250 250 250 251 251 254 257 258 260 259 256 255 250 246 239 224 218 216 216 216 217 219 222 224 226 227
259 260 260 259 258 258 257 256 256 255 254 253 253 253 252 250 248 249 248 249 250 250 254 255 258 259 261 255 252 249 246 241 229 226 223 221 218 218 220 222 226 227 228
260 260 260 261 260 260 259 258 257 257 258 256 256 255 252 248 245 244 245 247 248 250 252 254 256 261 260 256 252 250 244 242 234 230 222 218 218 219 220 223 225 227 228
263 262 261 260 261 261 260 259 259 258 258 259 258 263 247 242 243 245 244 246 244 248 251 255 256 259 258 256 254 251 247 241 241 239 229 221 218 219 220 223 225 228 229
265 264 263 262 262 262 262 260 260 259 257 257 257 257 268 230 239 251 249 245 244 247 251 253 255 257 259 257 255 254 249 246 244 237 224 221 218 219 220 222 225 229 229
269 268 266 265 264 263 263 261 259 257 258 256 254 255 255 253 253 257 252 246 244 246 249 250 253 256 257 256 255 253 252 245 241 234 228 221 219 218 219 222 225 228 228
272 271 270 269 267 265 264 263 258 257 256 257 256 256 255 252 251 249 249 245 244 246 245 249 252 255 256 255 252 253 255 251 243 233 231 221 218 216 218 221 225 228 229
275 275 274 273 270 268 265 263 260 257 257 256 257 256 252 249 244 241 243 241 244 246 247 247 251 253 254 253 250 252 254 251 242 230 224 214 214 214 217 221 225 228 229
277 278 277 276 275 271 268 263 261 258 255 254 253 254 249 244 241 242 240 238 244 243 246 250 249 251 252 249 246 249 252 248 228 220 211 204 210 214 218 222 225 228 230
279 280 281 280 278 275 270 263 261 256 255 253 254 246 242 242 239 239 235 235 237 243 244 248 249 250 245 244 242 242 245 239 226 221 219 219 217 218 220 222 226 229 231
284 284 283 284 282 278 271 263 259 257 255 251 250 237 234 237 240 235 233 231 237 245 247 247 244 246 239 241 239 238 236 232 226 223 221 217 218 221 224 226 228 230 232
285 285 286 287 284 282 272 263 260 251 245 244 238 237 238 237 235 234 233 233 239 243 245 242 240 238 238 238 238 236 234 230 225 222 220 221 223 225 227 229 230 232 233
287 288 288 289 287 283 276 264 257 246 243 239 241 241 238 237 235 238 229 230 235 238 236 236 234 236 236 238 237 235 234 232 231 229 230 230 230 231 231 231 232 234 236
292 292 291 291 288 280 276 269 259 246 239 242 242 241 235 232 226 224 226 228 233 232 232 232 233 236 237 237 236 235 233 232 233 235 233 237 234 234 233 235 236 237 239
297 297 297 295 290 280 273 269 264 248 242 243 241 237 236 229 227 226 228 240 234 231 230 231 234 233 235 235 234 233 233 234 235 236 236 238 235 234 234 237 238 238 239
304 304 305 301 292 285 277 273 265 257 250 249 239 233 228 227 225 224 233 242 234 227 227 230 234 231 232 234 233 233 235 237 238 238 239 239 238 238 240 240 237 240 240
312 314 314 309 299 287 287 281 258 254 251 234 233 231 228 228 222 228 235 237 228 223 226 230 226 229 231 232 234 235 238 239 241 241 241 239 239 241 243 241 241 240 239
329 327 323 318 308 303 300 289 275 253 249 233 236 232 228 225 227 231 228 225 219 215 216 222 223 229 232 234 236 239 241 242 244 244 242 242 241 243 244 245 240 238 238
344 345 342 337 329 322 305 300 275 248 248 233 226 229 222 224 229 232 229 222 221 220 220 224 230 234 235 238 240 241 244 244 245 246 240 245 244 246 243 241 239 236 234
350 354 359 4 0 356 349 335 300 265 251 244 225 229 223 224 231 233 230 222 217 223 226 227 230 235 241 244 242 243 244 245 249 247 245 245 243 241 240 239 234 234 237
2 5 9 12 14 17 18 12 350 314 270 228 228 237 221 224 231 226 223 224 223 226 231 237 240 242 244 245 245 245 244 245 249 248 242 244 238 238 238 236 235 235 234